Weather History for Ludington, MI

Change the Weather History Date:

Wednesday, February 13, 2013

  Actual Average Record
Temperature  
Mean Temperature 32 °F -  
Max Temperature 35 °F 31 °F 52 °F (1984)
Min Temperature 30 °F 15 °F -5 °F (1979)
Degree Days  
Heating Degree Days 32    
Moisture  
Dew Point 29 °F    
Average Humidity 82    
Maximum Humidity 86    
Minimum Humidity 75    
Precipitation  
Precipitation 0.00 in - - ()
Sea Level Pressure  
Sea Level Pressure 29.74 in    
Wind  
Wind Speed 9 mph (SW)    
Max Wind Speed 15 mph    
Max Gust Speed 18 mph    
Visibility 6 miles    
Events      
Averages and records for this station are not official NWS values.
T = Trace of Precipitation, MM = Missing Value Source: NWS Daily Summary

Daily Weather History Graph

Daily Weather History Graph

Search for Another Location

Airport:

Trip Planner

Search our weather history database for the weather conditions in past years. The results will help you decide how hot, cold, wet, or windy it might be!

Date:

Astronomy

Feb. 13, 2013 Rise Set
Actual Time 7:47 AM EST 6:13 PM EST
Civil Twilight 7:17 AM EST 6:42 PM EST
Nautical Twilight 6:43 AM EST 7:16 PM EST
Astronomical Twilight 6:10 AM EST 7:50 PM EST
Moon 9:06 AM EST (2/13) 10:26 PM EST (2/13)
Length of Visible Light 11h 25m
Length of Day
10h 25m
Waxing Crescent, 13% of the Moon is Illuminated
Feb 13
Waxing Crescent
Feb 17
First Quarter
Feb 25
Full
Mar 4
Last Quarter
Mar 11
New

Hourly Weather History & Observations

Time (EST) Temp. Windchill Dew Point Humidity Pressure Visibility Wind Dir Wind Speed Gust Speed Precip Events Conditions
12:14 AM 30.2 °F 20.2 °F 23.0 °F 75% 29.86 in 10.0 mi WSW 12.7 mph - N/A   Overcast
12:35 AM 30.2 °F 21.9 °F 23.2 °F 75% 29.86 in 10.0 mi WSW 9.2 mph - N/A   Mostly Cloudy
12:55 AM 30.2 °F 20.8 °F 23.7 °F 77% 29.85 in 10.0 mi WSW 11.5 mph - N/A   Mostly Cloudy
1:15 AM 30.2 °F 21.9 °F 23.9 °F 77% 29.85 in 10.0 mi WSW 9.2 mph - N/A   Scattered Clouds
1:35 AM 30.2 °F 21.9 °F 23.9 °F 77% 29.84 in 10.0 mi WSW 9.2 mph - N/A   Clear
1:55 AM 30.2 °F 21.3 °F 24.3 °F 79% 29.84 in 10.0 mi WSW 10.4 mph - N/A   Scattered Clouds
2:15 AM 30.2 °F 22.6 °F 24.4 °F 79% 29.84 in 10.0 mi SW 8.1 mph - N/A   Mostly Cloudy
2:35 AM 32.2 °F 24.4 °F 26.6 °F 80% 29.84 in 10.0 mi SW 9.2 mph - N/A   Overcast
2:55 AM 32.5 °F 23.7 °F 27.1 °F 80% 29.83 in 10.0 mi SW 11.5 mph - N/A   Overcast
3:15 AM 32.5 °F 23.7 °F 27.3 °F 81% 29.82 in 10.0 mi SW 11.5 mph - N/A   Overcast
3:35 AM 32.5 °F 23.7 °F 27.5 °F 82% 29.82 in 7.0 mi SW 11.5 mph 17.3 mph N/A   Overcast
3:55 AM 32.5 °F 22.7 °F 27.5 °F 82% 29.81 in 7.0 mi SW 13.8 mph 18.4 mph N/A   Overcast
4:15 AM 32.0 °F 24.8 °F 27.1 °F 82% 29.80 in 7.0 mi SSW 8.1 mph - N/A   Mostly Cloudy
4:34 AM 32.2 °F 23.8 °F 27.9 °F 84% 29.80 in 7.0 mi SW 10.4 mph - N/A   Mostly Cloudy
4:55 AM 32.5 °F 24.2 °F 27.9 °F 83% 29.79 in 7.0 mi SW 10.4 mph - N/A   Overcast
5:15 AM 32.5 °F 24.2 °F 27.9 °F 83% 29.79 in 7.0 mi SSW 10.4 mph - N/A   Overcast
5:34 AM 32.4 °F 24.0 °F 27.9 °F 83% 29.78 in 7.0 mi SW 10.4 mph - N/A   Mostly Cloudy
5:55 AM 31.8 °F 24.6 °F 27.0 °F 82% 29.78 in 7.0 mi SW 8.1 mph - N/A   Scattered Clouds
6:15 AM 31.6 °F 24.4 °F 27.0 °F 83% 29.77 in 7.0 mi SW 8.1 mph - N/A   Scattered Clouds
6:34 AM 31.1 °F 25.4 °F 26.4 °F 83% 29.77 in 7.0 mi SW 5.8 mph - N/A   Clear
6:55 AM 31.6 °F 25.1 °F 26.8 °F 82% 29.76 in 7.0 mi SW 6.9 mph - N/A   Clear
7:15 AM 31.8 °F 25.4 °F 27.0 °F 82% 29.76 in 7.0 mi SW 6.9 mph - N/A   Clear
7:34 AM 32.0 °F 25.6 °F 27.7 °F 84% 29.75 in 7.0 mi SW 6.9 mph - N/A   Mostly Cloudy
7:55 AM 33.3 °F 25.7 °F 28.8 °F 84% 29.75 in 5.0 mi SSW 9.2 mph - N/A   Overcast
8:15 AM 30.2 °F 22.6 °F 26.4 °F 86% 29.74 in 4.0 mi SSW 8.1 mph - N/A   Overcast
8:34 AM 31.6 °F 26.0 °F 27.1 °F 83% 29.74 in 5.0 mi SSW 5.8 mph - N/A   Overcast
8:55 AM 32.5 °F 24.8 °F 28.4 °F 85% 29.74 in 5.0 mi SSW 9.2 mph - N/A   Haze
9:15 AM 31.8 °F 26.2 °F 27.1 °F 83% 29.74 in 5.0 mi South 5.8 mph - N/A   Haze
9:35 AM 32.0 °F 28.7 °F 27.7 °F 84% 29.74 in 5.0 mi South 3.5 mph - N/A   Haze
9:55 AM 32.5 °F 27.1 °F 28.0 °F 83% 29.74 in 5.0 mi SSW 5.8 mph - N/A   Haze
10:14 AM 35.1 °F 27.9 °F 30.2 °F 82% 29.74 in 5.0 mi SW 9.2 mph - N/A   Haze
10:35 AM 35.1 °F 28.6 °F 30.0 °F 82% 29.74 in 5.0 mi SW 8.1 mph 16.1 mph N/A   Haze
10:55 AM 35.1 °F 27.4 °F 29.8 °F 81% 29.73 in 5.0 mi SW 10.4 mph - N/A   Haze
11:15 AM 35.1 °F 26.9 °F 29.7 °F 81% 29.73 in 5.0 mi SW 11.5 mph 16.1 mph N/A   Haze
11:35 AM 35.1 °F 27.4 °F 29.8 °F 81% 29.73 in 5.0 mi WSW 10.4 mph - N/A   Haze
11:55 AM 35.1 °F 26.4 °F 29.8 °F 81% 29.73 in 5.0 mi SW 12.7 mph 16.1 mph N/A   Haze
12:15 PM 35.1 °F 26.9 °F 30.0 °F 82% 29.72 in 5.0 mi SW 11.5 mph - N/A   Haze
12:35 PM 35.1 °F 26.9 °F 30.0 °F 82% 29.72 in 5.0 mi SSW 11.5 mph - N/A   Haze
12:54 PM 35.1 °F 27.4 °F 30.0 °F 82% 29.71 in 5.0 mi SSW 10.4 mph 18.4 mph N/A   Haze
1:15 PM 35.1 °F 25.5 °F 30.0 °F 82% 29.70 in 5.0 mi SSW 15.0 mph 18.4 mph N/A   Haze
1:35 PM 35.1 °F 25.9 °F 29.8 °F 81% 29.70 in 5.0 mi SSW 13.8 mph - N/A   Haze
1:55 PM 35.1 °F 26.9 °F 30.0 °F 82% 29.70 in 5.0 mi SW 11.5 mph 16.1 mph N/A   Haze
2:15 PM 35.1 °F 25.9 °F 30.0 °F 82% 29.70 in 5.0 mi SW 13.8 mph 17.3 mph N/A   Haze
2:34 PM 35.1 °F 27.9 °F 30.2 °F 82% 29.70 in 5.0 mi SW 9.2 mph - N/A   Haze
2:55 PM 35.1 °F 27.4 °F 30.2 °F 82% 29.69 in 4.0 mi SSW 10.4 mph - N/A   Haze
3:15 PM 35.1 °F 27.4 °F 30.2 °F 82% 29.69 in 5.0 mi SSW 10.4 mph 17.3 mph N/A   Haze
3:34 PM 35.1 °F 27.9 °F 30.2 °F 82% 29.69 in 5.0 mi SSW 9.2 mph - N/A   Haze
3:55 PM 35.1 °F 27.4 °F 30.2 °F 82% 29.69 in 5.0 mi SSW 10.4 mph - N/A   Haze
4:15 PM 35.1 °F 28.6 °F 30.2 °F 82% 29.69 in 5.0 mi SSW 8.1 mph - N/A   Haze
4:55 PM 35.1 °F 27.9 °F 30.0 °F 82% 29.69 in 5.0 mi SSW 9.2 mph - N/A   Haze
5:15 PM 35.1 °F 28.6 °F 30.0 °F 82% 29.69 in 5.0 mi SSW 8.1 mph - N/A   Haze
5:34 PM 35.1 °F 27.9 °F 30.2 °F 82% 29.69 in 5.0 mi South 9.2 mph - N/A   Haze
5:55 PM 35.1 °F 28.6 °F 30.2 °F 82% 29.69 in 5.0 mi South 8.1 mph - N/A   Haze
6:14 PM 35.1 °F 27.9 °F 30.2 °F 82% 29.69 in 5.0 mi SSW 9.2 mph - N/A   Haze
6:35 PM 35.1 °F 28.6 °F 30.2 °F 82% 29.69 in 5.0 mi South 8.1 mph - N/A   Haze
6:55 PM 35.1 °F 29.3 °F 30.6 °F 84% 29.70 in 7.0 mi SSW 6.9 mph - N/A   Overcast
7:14 PM 35.1 °F 28.6 °F 30.6 °F 84% 29.69 in 5.0 mi SSW 8.1 mph - N/A   Haze
7:35 PM 35.1 °F 30.1 °F 30.7 °F 84% 29.70 in 5.0 mi SSW 5.8 mph - N/A   Overcast
7:55 PM 35.1 °F 31.0 °F 30.9 °F 85% 29.70 in 5.0 mi South 4.6 mph - N/A   Overcast
8:14 PM 35.1 °F 31.0 °F 31.1 °F 85% 29.70 in 5.0 mi SSW 4.6 mph - N/A   Overcast
8:35 PM 35.1 °F 31.0 °F 31.1 °F 85% 29.70 in 5.0 mi SSW 4.6 mph - N/A   Overcast
8:55 PM 35.1 °F 30.1 °F 31.1 °F 85% 29.70 in 5.0 mi South 5.8 mph - N/A   Overcast
9:14 PM 35.1 °F 30.1 °F 31.1 °F 85% 29.70 in 5.0 mi South 5.8 mph - N/A   Overcast
9:35 PM 35.1 °F 29.3 °F 30.9 °F 85% 29.70 in 5.0 mi SW 6.9 mph - N/A   Overcast
9:55 PM 35.1 °F 28.6 °F 30.7 °F 84% 29.70 in 5.0 mi SW 8.1 mph - N/A   Scattered Clouds
10:15 PM 35.1 °F 30.1 °F 30.9 °F 85% 29.69 in 5.0 mi SSW 5.8 mph - N/A   Scattered Clouds
10:35 PM 35.1 °F 31.0 °F 30.9 °F 85% 29.69 in 5.0 mi South 4.6 mph - N/A   Scattered Clouds
10:54 PM 35.1 °F 32.2 °F 31.1 °F 85% 29.69 in 5.0 mi SSW 3.5 mph - N/A   Mostly Cloudy
11:15 PM 35.1 °F 31.0 °F 31.1 °F 85% 29.69 in 5.0 mi SW 4.6 mph - N/A   Mostly Cloudy
11:35 PM 35.1 °F 31.0 °F 31.1 °F 85% 29.69 in 5.0 mi SW 4.6 mph - N/A   Scattered Clouds
11:55 PM 32.5 °F 29.3 °F 28.6 °F 85% 29.69 in 5.0 mi SW 3.5 mph - N/A   Haze